SDM601 UUWW-UMMS

Flight info

Callsign SDM601
Flight time 0h 40m
Altitude 32000
Route POKAG3D POKAG N858 VEPIS T526 RUHAL RUHAL2E
Aircraft A320/M-SDE3FGHIRWY/LB1

Departure

Time 2026-05-07 09:27
Airport Vnukovo International Airport (UUWW)

Arrival

Time 2026-05-07 10:08
Airport Minsk National Airport (UMMS)
Time Latitude Longitude Altitude Speed Heading
2026-05-07 09:19 55.60039 37.27926 680 ft 0 kts 24°
2026-05-07 09:24 55.60047 37.27932 680 ft 9 kts 24°
2026-05-07 09:24 55.60076 37.28087 680 ft 15 kts 97°
2026-05-07 09:24 55.60080 37.28257 679 ft 13 kts 84°
2026-05-07 09:24 55.60091 37.28407 679 ft 11 kts 73°
2026-05-07 09:25 55.60153 37.28545 679 ft 18 kts 47°
2026-05-07 09:25 55.60204 37.28708 679 ft 14 kts 114°
2026-05-07 09:25 55.60143 37.28826 678 ft 12 kts 137°
2026-05-07 09:25 55.60068 37.28887 679 ft 16 kts 163°
2026-05-07 09:26 55.59874 37.28970 689 ft 27 kts 166°
2026-05-07 09:26 55.59778 37.28918 686 ft 0 kts 251°
2026-05-07 09:26 55.59755 37.28794 690 ft 39 kts 251°
2026-05-07 09:26 55.59563 37.27951 680 ft 106 kts 247°
2026-05-07 09:27 55.59217 37.26427 669 ft 158 kts 248°
2026-05-07 09:27 55.58801 37.24584 1179 ft 160 kts 247°
2026-05-07 09:27 55.57658 37.21243 2536 ft 161 kts 232°
2026-05-07 09:28 55.56943 37.19565 2862 ft 182 kts 232°
2026-05-07 09:28 55.56132 37.17652 3149 ft 206 kts 234°
2026-05-07 09:28 55.55271 37.15556 3753 ft 215 kts 239°
2026-05-07 09:28 55.54827 37.13051 4490 ft 218 kts 266°
2026-05-07 09:29 55.54810 37.10370 5329 ft 219 kts 268°
2026-05-07 09:29 55.54811 37.07673 6170 ft 220 kts 268°
2026-05-07 09:29 55.55091 37.05030 6890 ft 229 kts 294°
2026-05-07 09:29 55.56254 37.03002 7574 ft 251 kts 328°
2026-05-07 09:30 55.58025 37.02312 8247 ft 269 kts 349°
2026-05-07 09:30 55.59922 37.02204 9027 ft 275 kts 354°
2026-05-07 09:30 55.61854 37.02274 9840 ft 279 kts 355°
2026-05-07 09:30 55.63794 37.02275 10551 ft 278 kts 347°
2026-05-07 09:31 55.65695 37.01566 10992 ft 285 kts 333°
2026-05-07 09:31 55.67576 37.00251 11506 ft 294 kts 331°
2026-05-07 09:31 55.69489 36.98851 12204 ft 299 kts 331°
2026-05-07 09:31 55.71419 36.97422 12929 ft 302 kts 331°
2026-05-07 09:32 55.73370 36.95971 13648 ft 305 kts 331°
2026-05-07 09:32 55.75337 36.94492 14279 ft 308 kts 330°
2026-05-07 09:32 55.77313 36.92975 14920 ft 311 kts 330°
2026-05-07 09:32 55.79203 36.91230 15541 ft 308 kts 319°
2026-05-07 09:33 55.80792 36.88734 16160 ft 303 kts 305°
2026-05-07 09:33 55.81990 36.85613 16446 ft 312 kts 291°
2026-05-07 09:33 55.82686 36.81925 16814 ft 317 kts 278°
2026-05-07 09:33 55.83037 36.78025 17407 ft 320 kts 271°
2026-05-07 09:34 55.82951 36.74123 18010 ft 321 kts 260°
2026-05-07 09:34 55.82367 36.70261 18544 ft 324 kts 248°
2026-05-07 09:34 55.81388 36.66622 19067 ft 328 kts 244°
2026-05-07 09:34 55.80368 36.62979 19585 ft 331 kts 244°
2026-05-07 09:35 55.79336 36.59305 20107 ft 334 kts 244°
2026-05-07 09:35 55.78292 36.55590 20628 ft 337 kts 244°
2026-05-07 09:35 55.77243 36.51847 21134 ft 339 kts 244°
2026-05-07 09:35 55.76285 36.48049 21624 ft 343 kts 251°
2026-05-07 09:36 55.75648 36.43885 21798 ft 356 kts 256°
2026-05-07 09:36 55.75058 36.39532 22006 ft 367 kts 256°
2026-05-07 09:36 55.73456 36.27701 23202 ft 378 kts 256°
2026-05-07 09:36 55.70909 36.09296 24837 ft 387 kts 256°
2026-05-07 09:37 55.68290 35.90599 26324 ft 394 kts 256°
2026-05-07 09:37 55.65595 35.71584 27781 ft 399 kts 256°
2026-05-07 09:37 55.63056 35.52483 29007 ft 406 kts 264°
2026-05-07 09:37 55.61963 35.32472 30144 ft 411 kts 264°
2026-05-07 09:38 55.60773 35.12220 31008 ft 416 kts 264°
2026-05-07 09:38 55.59568 34.91812 31925 ft 414 kts 264°
2026-05-07 09:38 55.58377 34.72087 31813 ft 400 kts 263°
2026-05-07 09:39 55.55919 34.33369 31813 ft 393 kts 263°
2026-05-07 09:39 55.54656 34.14122 31925 ft 389 kts 263°
2026-05-07 09:39 55.53375 33.94851 31992 ft 393 kts 263°
2026-05-07 09:40 55.50118 33.56405 31898 ft 398 kts 255°
2026-05-07 09:40 55.47377 33.37636 31760 ft 400 kts 255°
2026-05-07 09:40 55.44621 33.18871 31717 ft 397 kts 255°
2026-05-07 09:41 55.39028 32.81513 31935 ft 390 kts 255°
2026-05-07 09:41 55.33367 32.44556 31813 ft 397 kts 254°
2026-05-07 09:42 55.27557 32.07443 31831 ft 390 kts 254°
2026-05-07 09:42 55.24619 31.88954 31982 ft 390 kts 254°
2026-05-07 09:42 55.21648 31.70504 31995 ft 391 kts 253°
2026-05-07 09:43 55.15628 31.33830 31808 ft 397 kts 253°
2026-05-07 09:43 55.08889 30.97552 31735 ft 389 kts 237°
2026-05-07 09:44 54.94187 30.68969 31213 ft 394 kts 230°
2026-05-07 09:44 54.86946 30.55236 30194 ft 382 kts 230°
2026-05-07 09:44 54.79889 30.41920 29133 ft 376 kts 229°
2026-05-07 09:44 54.72879 30.28783 28022 ft 369 kts 229°
2026-05-07 09:45 54.65948 30.15876 26946 ft 362 kts 229°
2026-05-07 09:45 54.59121 30.03236 25921 ft 357 kts 229°
2026-05-07 09:45 54.52400 29.90815 24941 ft 351 kts 228°
2026-05-07 09:45 54.45755 29.78618 23966 ft 346 kts 228°
2026-05-07 09:46 54.39194 29.66633 22976 ft 341 kts 228°
2026-05-07 09:46 54.32769 29.54918 21359 ft 332 kts 228°
2026-05-07 09:46 54.26531 29.43526 19588 ft 324 kts 228°
2026-05-07 09:46 54.20448 29.32455 17737 ft 322 kts 227°
2026-05-07 09:47 54.14372 29.21282 15976 ft 313 kts 236°
2026-05-07 09:47 54.12570 29.06955 14302 ft 313 kts 261°
2026-05-07 09:47 54.11648 28.92277 12559 ft 308 kts 261°
2026-05-07 09:47 54.10819 28.78114 11007 ft 297 kts 262°
2026-05-07 09:48 54.10129 28.65391 9713 ft 288 kts 262°
2026-05-07 09:48 54.09943 28.62049 9553 ft 277 kts 262°
2026-05-07 09:48 54.09764 28.58832 9429 ft 272 kts 262°
2026-05-07 09:48 54.09581 28.55616 9208 ft 271 kts 262°
2026-05-07 09:49 54.09400 28.52429 8925 ft 269 kts 262°
2026-05-07 09:49 54.09216 28.49260 8635 ft 268 kts 262°
2026-05-07 09:49 54.09034 28.46142 8346 ft 267 kts 262°
2026-05-07 09:49 54.08848 28.43000 8054 ft 265 kts 262°
2026-05-07 09:50 54.08666 28.39879 7871 ft 264 kts 262°
2026-05-07 09:50 54.08483 28.36754 7851 ft 264 kts 262°
2026-05-07 09:50 54.08300 28.33636 7846 ft 264 kts 262°
2026-05-07 09:50 54.08115 28.30525 7703 ft 264 kts 261°
2026-05-07 09:51 54.07929 28.27422 7100 ft 263 kts 262°
2026-05-07 09:51 54.07745 28.24329 6480 ft 260 kts 261°
2026-05-07 09:51 54.07567 28.21325 6176 ft 257 kts 261°
2026-05-07 09:51 54.07384 28.18299 5886 ft 255 kts 261°
2026-05-07 09:52 54.07204 28.15307 5603 ft 252 kts 261°
2026-05-07 09:52 54.07027 28.12386 5452 ft 242 kts 261°
2026-05-07 09:52 54.06859 28.09596 5323 ft 231 kts 261°
2026-05-07 09:52 54.06895 28.06909 5107 ft 228 kts 279°
2026-05-07 09:53 54.07532 28.04440 4980 ft 232 kts 300°
2026-05-07 09:53 54.08684 28.02453 4860 ft 239 kts 313°
2026-05-07 09:53 54.09931 28.00627 4677 ft 239 kts 313°
2026-05-07 09:53 54.11208 27.98756 4432 ft 239 kts 314°
2026-05-07 09:54 54.12452 27.96932 4192 ft 238 kts 314°
2026-05-07 09:54 54.13711 27.95085 3956 ft 238 kts 314°
2026-05-07 09:54 54.14964 27.93246 3882 ft 237 kts 312°
2026-05-07 09:54 54.16210 27.91403 3821 ft 237 kts 313°
2026-05-07 09:55 54.17458 27.89552 3776 ft 238 kts 313°
2026-05-07 09:55 54.18708 27.87700 3722 ft 238 kts 312°
2026-05-07 09:55 54.19941 27.85871 3671 ft 238 kts 313°
2026-05-07 09:55 54.21194 27.84017 3537 ft 237 kts 314°
2026-05-07 09:56 54.22440 27.82175 3417 ft 236 kts 313°
2026-05-07 09:56 54.23686 27.80329 3288 ft 238 kts 313°
2026-05-07 09:56 54.24940 27.78467 3167 ft 239 kts 314°
2026-05-07 09:56 54.26197 27.76598 3063 ft 239 kts 315°
2026-05-07 09:57 54.27392 27.74648 2965 ft 233 kts 299°
2026-05-07 09:57 54.27969 27.72159 2971 ft 226 kts 271°
2026-05-07 09:57 54.27759 27.69587 2972 ft 216 kts 242°
2026-05-07 09:57 54.26918 27.67525 2976 ft 211 kts 226°
2026-05-07 09:58 54.25944 27.65650 2979 ft 215 kts 227°
2026-05-07 09:58 54.24956 27.63736 2978 ft 214 kts 227°
2026-05-07 09:58 54.23968 27.61823 2978 ft 215 kts 226°
2026-05-07 09:58 54.22985 27.59917 2975 ft 210 kts 227°
2026-05-07 09:59 54.22009 27.58157 2974 ft 197 kts 215°
2026-05-07 09:59 54.20765 27.57473 2979 ft 190 kts 178°
2026-05-07 09:59 54.19548 27.58281 2978 ft 194 kts 142°
2026-05-07 09:59 54.18645 27.60025 2975 ft 195 kts 140°
2026-05-07 10:00 54.17760 27.61821 2979 ft 202 kts 129°
2026-05-07 10:00 54.16877 27.63670 2983 ft 201 kts 139°
2026-05-07 10:00 54.15883 27.65293 2981 ft 199 kts 143°
2026-05-07 10:00 54.14846 27.66882 2988 ft 200 kts 144°
2026-05-07 10:01 54.13809 27.68452 2985 ft 198 kts 143°
2026-05-07 10:01 54.12781 27.70004 2989 ft 196 kts 143°
2026-05-07 10:01 54.12106 27.71022 2990 ft 195 kts 143°
2026-05-07 10:01 54.11089 27.72555 2991 ft 195 kts 143°
2026-05-07 10:02 54.10076 27.74081 2992 ft 194 kts 143°
2026-05-07 10:02 54.09064 27.75603 2993 ft 194 kts 143°
2026-05-07 10:02 54.08051 27.77127 2996 ft 194 kts 143°
2026-05-07 10:02 54.07035 27.78653 2995 ft 194 kts 143°
2026-05-07 10:03 54.06033 27.80160 2999 ft 195 kts 142°
2026-05-07 10:03 54.05017 27.81684 2998 ft 194 kts 143°
2026-05-07 10:03 54.04002 27.83207 2998 ft 194 kts 143°
2026-05-07 10:03 54.02985 27.84731 2999 ft 198 kts 143°
2026-05-07 10:04 54.01890 27.86365 3005 ft 215 kts 143°
2026-05-07 10:04 54.00764 27.88054 3003 ft 215 kts 143°
2026-05-07 10:04 53.99684 27.89677 2964 ft 199 kts 143°
2026-05-07 10:04 53.98693 27.91162 2753 ft 182 kts 143°
2026-05-07 10:05 53.97774 27.92533 2521 ft 170 kts 143°
2026-05-07 10:05 53.96929 27.93796 2334 ft 153 kts 144°
2026-05-07 10:05 53.96169 27.94930 2134 ft 142 kts 144°
2026-05-07 10:05 53.95438 27.96017 1952 ft 138 kts 144°
2026-05-07 10:06 53.94723 27.97089 1795 ft 136 kts 144°
2026-05-07 10:06 53.94011 27.98156 1593 ft 137 kts 145°
2026-05-07 10:06 53.93296 27.99223 1444 ft 137 kts 145°
2026-05-07 10:06 53.92580 28.00290 1229 ft 137 kts 146°
2026-05-07 10:07 53.91855 28.01361 1044 ft 138 kts 147°
2026-05-07 10:07 53.91123 28.02437 892 ft 140 kts 140°
2026-05-07 10:07 53.90397 28.03525 666 ft 138 kts 143°
2026-05-07 10:07 53.89749 28.04472 637 ft 101 kts 140°
2026-05-07 10:08 53.89322 28.05093 636 ft 69 kts 139°
2026-05-07 10:08 53.88980 28.05600 638 ft 61 kts 139°
2026-05-07 10:08 53.88734 28.05825 642 ft 36 kts 165°
2026-05-07 10:08 53.88646 28.05816 644 ft 0 kts 211°
2026-05-07 10:09 53.88637 28.05802 642 ft 10 kts 230°
2026-05-07 10:09 53.88667 28.05669 636 ft 12 kts 332°
2026-05-07 10:09 53.88816 28.05455 636 ft 47 kts 319°
2026-05-07 10:09 53.89059 28.05091 636 ft 46 kts 319°
2026-05-07 10:10 53.89181 28.04844 640 ft 16 kts 252°
2026-05-07 10:10 53.89090 28.04656 639 ft 29 kts 229°
2026-05-07 10:10 53.89068 28.04491 637 ft 10 kts 309°
2026-05-07 10:10 53.89063 28.04373 642 ft 12 kts 232°
2026-05-07 10:11 53.88968 28.04193 636 ft 39 kts 228°
2026-05-07 10:11 53.88800 28.03862 636 ft 34 kts 229°
2026-05-07 10:11 53.88656 28.03587 636 ft 29 kts 227°
2026-05-07 10:11 53.88609 28.03356 642 ft 19 kts 309°
2026-05-07 10:12 53.88714 28.03202 636 ft 20 kts 318°
2026-05-07 10:12 53.88818 28.03106 636 ft 13 kts 13°
2026-05-07 10:12 53.88871 28.03145 636 ft 0 kts 25°